Nouakchott, Mauritania

1:27 PM GMT on October 20, 2017 (GMT +0000)
Nouakchott

Weather History for GQNN - October, 2012

Change the Weather History Date:

Saturday, October 6, 2012

  Actual Average Record
Temperature  
Mean Temperature 88 °F -  
Max Temperature 97 °F 92 °F 122 °F (2015)
Min Temperature 80 °F 72 °F 71 °F (1997)
Cooling Degree Days 24    
Growing Degree Days 38 (Base 50)    
Moisture  
Dew Point 71 °F    
Average Humidity 61    
Maximum Humidity 97    
Minimum Humidity 30    
Precipitation  
Precipitation 0.00 in - - ()
Sea Level Pressure  
Sea Level Pressure 29.86 in    
Wind  
Wind Speed 7 mph ()    
Max Wind Speed 13 mph    
Max Gust Speed -    
Visibility 5.1 miles    
Events      
Averages and records for this station are not official NWS values.
T = Trace of Precipitation, MM = Missing Value Source: Averaged Metar Reports

Daily Weather History Graph

Daily Weather History Graph

Search for Another Location

Airport or City:

Trip Planner

Search our weather history database for the weather conditions in past years. The results will help you decide how hot, cold, wet, or windy it might be!

Date:

Astronomy

Oct. 06, 2012 Rise Set
Actual Time 6:55 AM GMT 6:48 PM GMT
Civil Twilight 6:33 AM GMT 7:09 PM GMT
Nautical Twilight 6:08 AM GMT 7:35 PM GMT
Astronomical Twilight 5:42 AM GMT 8:00 PM GMT
Moon 11:29 PM GMT (10/6) 12:03 PM GMT (10/6)
Length of Visible Light 12h 36m
Length of Day
11h 52m
Waning Gibbous, 67% of the Moon is Illuminated
Oct 6
Waning Gibbous
Oct 8
Last Quarter
Oct 15
New
Oct 22
First Quarter
Oct 29
Full

Hourly Weather History & Observations

Time (GMT) Temp. Heat Index Dew Point Humidity Pressure Visibility Wind Dir Wind Speed Gust Speed Precip Events Conditions
12:00 AM 82.4 °F 90.9 °F 77.0 °F 84% 29.89 in 5.0 mi WNW 6.9 mph - N/A   Unknown
12:30 AM 82.4 °F 90.9 °F 77.0 °F 84% 29.89 in 5.0 mi NW 8.1 mph - N/A   Unknown
1:00 AM 82.4 °F 90.9 °F 77.0 °F 84% 29.89 in 5.0 mi NNW 8.1 mph - N/A   Unknown
1:30 AM 82.4 °F 90.9 °F 77.0 °F 84% 29.89 in 5.0 mi NNW 8.1 mph - N/A   Unknown
2:00 AM 82.4 °F 89.5 °F 75.2 °F 79% 29.89 in 5.0 mi NNW 8.1 mph - N/A   Unknown
2:30 AM 82.4 °F 89.5 °F 75.2 °F 79% 29.89 in 5.0 mi NNW 5.8 mph - N/A   Unknown
3:00 AM 80.6 °F 86.2 °F 75.2 °F 84% 29.86 in 5.0 mi NW 6.9 mph - N/A   Unknown
3:30 AM 80.6 °F 86.2 °F 75.2 °F 84% 29.86 in 5.0 mi NW 6.9 mph - N/A   Unknown
4:00 AM 80.6 °F 85.4 °F 73.4 °F 79% 29.86 in 5.0 mi WNW 5.8 mph - N/A   Unknown
4:30 AM 80.6 °F 84.6 °F 71.6 °F 74% 29.86 in 5.0 mi WNW 4.6 mph - N/A   Unknown
5:00 AM 82.4 °F 87.2 °F 71.6 °F 70% 29.86 in 5.0 mi Variable 3.5 mph - N/A   Unknown
5:30 AM 80.6 °F 84.6 °F 71.6 °F 74% 29.86 in 5.0 mi NW 3.5 mph - N/A   Unknown
6:00 AM 83 °F - 82 °F 97% 29.91 in 6 mi NW 3.5 mph - -  
6:00 AM 82.4 °F 87.2 °F 71.6 °F 70% 29.89 in 5.0 mi WNW 4.6 mph - N/A   Unknown
6:30 AM 80.6 °F 84.6 °F 71.6 °F 74% 29.89 in 5.0 mi Variable 3.5 mph - N/A   Unknown
7:00 AM 82.4 °F 87.2 °F 71.6 °F 70% 29.89 in 5.0 mi NNW 5.8 mph - N/A   Unknown
7:30 AM 82.4 °F 88.2 °F 73.4 °F 74% 29.89 in 5.0 mi NNW 5.8 mph - N/A   Unknown
8:00 AM 82.4 °F 87.2 °F 71.6 °F 70% 29.89 in 5.0 mi North 4.6 mph - N/A   Unknown
8:30 AM 84.2 °F 90.9 °F 73.4 °F 70% 29.89 in 5.0 mi NNW 5.8 mph - N/A   Unknown
9:00 AM 86 °F - 82 °F 85% 29.93 in 6 mi NNW 6.9 mph - -  
9:00 AM 86.0 °F 91.8 °F 71.6 °F 62% 29.89 in 5.0 mi NNW 6.9 mph - N/A   Unknown
9:30 AM 87.8 °F 92.6 °F 69.8 °F 55% 29.89 in 5.0 mi NNW 6.9 mph - N/A   Unknown
10:00 AM 89.6 °F 93.4 °F 68.0 °F 49% 29.92 in 5.0 mi NNW 8.1 mph - N/A   Unknown
10:30 AM 89.6 °F 94.7 °F 69.8 °F 52% 29.92 in 5.0 mi North 9.2 mph - N/A   Unknown
11:00 AM 91.4 °F 96.8 °F 69.8 °F 49% 29.92 in 5.0 mi NNW 8.1 mph - N/A   Unknown
11:30 AM 93.2 °F 96.2 °F 66.2 °F 41% 29.92 in 5.0 mi North 10.4 mph - N/A   Unknown
12:00 PM 95.0 °F 97.0 °F 64.4 °F 36% 29.89 in 5.0 mi NNW 9.2 mph - N/A   Unknown
12:30 PM 96.8 °F 99.0 °F 64.4 °F 34% 29.89 in 5.0 mi NNW 11.5 mph - N/A   Unknown
1:00 PM 96.8 °F 97.1 °F 60.8 °F 30% 29.86 in 5.0 mi NNW 11.5 mph - N/A   Unknown
1:30 PM 95.0 °F 96.0 °F 62.6 °F 34% 29.86 in 5.0 mi NW 11.5 mph - N/A   Unknown
2:00 PM 95.0 °F 98.5 °F 66.2 °F 39% 29.86 in 5.0 mi WNW 11.5 mph - N/A   Unknown
2:30 PM 93.2 °F 97.7 °F 68.0 °F 44% 29.83 in 5.0 mi NW 12.7 mph - N/A   Unknown
3:00 PM 94 °F - 74 °F 43% 29.86 in 6 mi WNW 11.5 mph - -  
3:00 PM 93.2 °F 97.7 °F 68.0 °F 44% 29.83 in 5.0 mi NW 11.5 mph - N/A   Partly Cloudy
3:30 PM 95.0 °F 99.5 °F 68.0 °F 41% 29.83 in 5.0 mi NW 10.4 mph - N/A   Partly Cloudy
4:00 PM 93.2 °F 97.7 °F 68.0 °F 44% 29.80 in 5.0 mi NW 11.5 mph - N/A   Partly Cloudy
4:30 PM 91.4 °F 96.8 °F 69.8 °F 49% 29.80 in 5.0 mi WNW 12.7 mph - N/A   Partly Cloudy
5:00 PM 91.4 °F 96.8 °F 69.8 °F 49% 29.80 in 5.0 mi WNW 11.5 mph - N/A   Partly Cloudy
5:30 PM 91.4 °F 96.8 °F 69.8 °F 49% 29.80 in 5.0 mi NW 11.5 mph - N/A   Partly Cloudy
6:00 PM 90 °F - 76 °F 55% 29.85 in 6 mi NW 10.4 mph - -  
6:00 PM 89.6 °F 94.7 °F 69.8 °F 52% 29.80 in 5.0 mi NW 10.4 mph - N/A   Unknown
6:30 PM 87.8 °F 92.6 °F 69.8 °F 55% 29.80 in 5.0 mi NW 10.4 mph - N/A   Unknown
7:00 PM 87.8 °F 93.8 °F 71.6 °F 58% 29.83 in 5.0 mi NNW 10.4 mph - N/A   Unknown
7:30 PM 86.0 °F 91.8 °F 71.6 °F 62% 29.83 in 5.0 mi NNW 10.4 mph - N/A   Unknown
8:00 PM 86.0 °F 91.8 °F 71.6 °F 62% 29.83 in 5.0 mi NNW 10.4 mph - N/A   Unknown
8:30 PM 86.0 °F 90.4 °F 69.8 °F 58% 29.83 in 5.0 mi NNW 11.5 mph - N/A   Unknown
9:00 PM 87 °F - 78 °F 68% 29.87 in 6 mi North 10.4 mph - -  
9:00 PM 86.0 °F 91.8 °F 71.6 °F 62% 29.83 in 5.0 mi North 10.4 mph - N/A   Unknown
9:30 PM 86.0 °F 89.4 °F 68.0 °F 55% 29.86 in 5.0 mi North 9.2 mph - N/A   Unknown
10:00 PM 86.0 °F 88.2 °F 66.2 °F 51% 29.86 in 5.0 mi North 9.2 mph - N/A   Unknown
10:30 PM 86.0 °F 89.4 °F 68.0 °F 55% 29.86 in 5.0 mi North 10.4 mph - N/A   Unknown
11:00 PM 86.0 °F 89.4 °F 68.0 °F 55% 29.86 in 5.0 mi North 10.4 mph - N/A   Unknown
11:30 PM 86.0 °F 90.4 °F 69.8 °F 58% 29.86 in 5.0 mi North 10.4 mph - N/A   Unknown